Regional Weather Roundup
Issued by NWS

Home | Current Version | Previous Version | Text Only | Print | Product List | Glossary Off
Versions: 1 2 3 4 5 6 7 8 9 10 11 12 13 14 15 16 17 18 19 20 21 22 23 24 25 26 27 28 29 30 31 32 33 34 35 36 37 38 39 40 41 42 43 44 45 46 47 48 49 50

000
ASUS44 KMEG 271210
RWRTN
TENNESSEE HOURLY STATE WEATHER ROUNDUP
NATIONAL WEATHER SERVICE MEMPHIS TN
700 AM CDT WED AUG 27 2014

TNZ002-004-019-021-049-052-054-088>092-271300-
WEST TENNESSEE

CITY           SKY/WX    TMP DP  RH WIND       PRES   REMARKS
MEMPHIS INTL   PTCLDY    75  67  76 CALM      30.08R
NWS MEMPHIS      N/A     71 N/A N/A MISG        N/A
JACKSON        CLEAR     68  66  93 CALM      30.10R FOG
DYERSBURG      MOCLDY    72  63  73 CALM      30.10R
UNION CITY     CLOUDY    70  68  94 CALM      30.08S VSB 1/4
PARIS          PTCLDY    68  68 100 CALM      30.11R
HUNTINGDON     CLEAR     69  68  97 CALM      30.10R
LEXINGTON      CLOUDY    66  66 100 CALM      30.10R VSB 0
SAVANNAH       CLEAR     64  64 100 CALM      30.10R
$$

TNZ008-025-027-028-033-062-065-066-271300-
NORTH MIDDLE TENNESSEE

CITY           SKY/WX    TMP DP  RH WIND       PRES   REMARKS
NASHVILLE      MOCLDY    71  69  93 CALM      30.11R
DICKSON        CLEAR     70  66  88 CALM      30.11R
PORTLAND       CLEAR     68  66  94 CALM      30.10R
CLARKSVILLE    PTCLDY    71  70  96 CALM      30.09S FOG
LEBANON        MOCLDY    69  67  93 CALM      30.09R
SMYRNA         MOCLDY    69  68  97 CALM      30.11R
MURFREESBORO   PTCLDY    69  67  93 CALM      30.10R
COOKEVILLE     CLOUDY    64  64 100 CALM      30.12R VSB 0
GALLATIN       CLOUDY    69  68  97 CALM      30.11R VSB 1/2
CROSSVILLE     HAZE      68  61  78 CALM      30.17R VSB 1/2
$$

TNZ061-075-076-078-094-096-097-271300-
SOUTH MIDDLE TENNESSEE

CITY           SKY/WX    TMP DP  RH WIND       PRES   REMARKS
LEWISBURG      MOCLDY    65  63  93 CALM      30.11R
FAYETTEVILLE   CLEAR     66  64  94 CALM      30.12R
TULLAHOMA      CLEAR     64  63  94 CALM      30.14R
WINCHESTER     PTCLDY    63  63 100 CALM      30.13R
MCMINNVILLE    PTCLDY    64  64 100 CALM      30.13R
COLUMBIA       PTCLDY    66  66 100 CALM      30.10R
SHELBYVILLE    CLEAR     66  66 100 CALM      30.12R
$$

TNZ017-018-042-046-047-271300-
NORTHEAST TENNESSEE

CITY           SKY/WX    TMP DP  RH WIND       PRES   REMARKS
TRI CITIES     MOSUNNY   58  55  90 CALM      30.16R
ELIZABETHTON   SUNNY     57  55  94 NE5       30.17S
$$

TNZ012-013-036-069-073-074-271300-
CENTRAL EAST TENNESSEE

CITY           SKY/WX    TMP DP  RH WIND       PRES   REMARKS
KNOXVILLE      MOSUNNY   65  63  93 CALM      30.12R
OAK RIDGE      FOG       66  66 100 CALM      30.15R VSB 1/4
GATLINBURG     SUNNY     61  59  94 CALM      30.14R
MORRISTOWN     SUNNY     63  61  94 E3        30.16R
$$

TNZ083-085-099-271300-
SOUTHEAST TENNESSEE

CITY           SKY/WX    TMP DP  RH WIND       PRES   REMARKS
CHATTANOOGA    PTCLDY    68  64  87 CALM      30.12R
$$

SKY/WX REPORTED AS FAIR MEANS FEW OR NO CLOUDS BELOW
12 THOUSAND FEET.




USA.gov is the U.S. government's official web portal to all federal, state and local government web resources and services.